METAR Formatted Surface Weather Observation
Issued by NWS

Current Version | Previous Version | Text Only | Print | Product List | Glossary On
Versions: 1 2 3 4 5 6 7 8 9 10 11 12 13 14 15 16 17 18 19 20 21 22 23 24 25 26 27 28 29 30 31 32 33 34 35 36 37 38 39 40 41 42 43 44 45 46 47 48 49 50
839
SAUS41 KAKQ 130250
MTRNGU
SPECI KNGU 130248Z 31016G22KT 10SM SCT016 BKN060 OVC080 02/M01 A2967
RMK AO2 PK WND 31026/0215 RAE11SNE09 P0001 T00221011 $



USA.gov is the U.S. government's official web portal to all federal, state and local government web resources and services.